DIAMANT B-P4 DEB, 7654

Orbit data source: Space-Track

DIAMANT B-P4 DEB, 7654 is space debris in LEO originally from a launch on Thu, 06 Feb 1975 UTC launched from the French Guiana (FRGUI). Debris objects in space refer to the collection of defunct objects orbiting the Earth. Examples of debris include non-operational satellites, rocket bodies, and fragments generated from explosions, collisions, or faulty payload assembly.

Loading next visibility...
Identifier
7654, 1975-010C
Orbit
LEO
Country
Flag of FRFR
Related business
Manufacturer
Unknown
Mission
Spacecraft
Bus & Motor
Unknown
Mass
Unknown
Launch date (UTC)
1975-02-06 (51 years ago)
Launch vehicle
Unknown
Launch site
French Guiana (FRGUI)
Object type
Payload
Rocket body
Debris
Shape & HBR
Unknown shape, 0.1 m
Radar Cross Section
Small (<0.1 m²)

Expand to show TLE details & history
Last TLE update: 6 hours ago

TLE from 6 hours ago
0 DIAMANT B-P4 DEB
1 07654U 75010C   26038.22788967  .00000396  00000-0  35115-3 0  9999
2 07654  49.8465 348.9650 0172343  17.9070 342.7802 13.95764854591800
Epoch: 2026-02-07T05:28Z
TLE epoch observation values (Epoch: 2026-02-07T05:28:09.667Z)
Latitude
-0.00007°
Longitude
129.57023°
Altitude
789.253 km
Speed
7.521 km/s
True Right ascension
23h 15m 51s
True Declination
0° 00' 00"
Sunlit
Object was in daylight at epoch
Visualization orbit readout
Latitude
Unknown
Longitude
Unknown
Altitude
Unknown
Speed
Unknown
Apparent Right ascension
Unknown
Apparent Declination
Unknown
Sunlit
N/A
Visualization observer readout
Local Sidereal Time
13:56:02
Azimuth
Unknown
Elevation
Unknown
Doppler factor
Unknown
Orbital elements
Apogee altitude
1,034.843 km
Perigee altitude
783.657 km
Semi-major axis
7,287.387 km
Eccentricity
0.01723
Inclination
49.8465°
RAAN
348.965°
Arg. of periapsis
17.907°
True anomaly
342.18329°
Mean anomaly
342.7802°
Eccentric anomaly
342.48299°
Mean motion
3.48887 °/min
Orbital period
103.19 mins
BSTAR
0.00035115
Loading maneuver chart data...
Computing Atmospheric mass density...
Loading historical data...
Loading historical data...
Loading historical data...
Loading historical data...
Loading historical data...
Loading historical data...
Loading historical data...
Other satellites on launch #10 in the year 1975 (1975-02-06 UTC)

Documentation

Showing up to 5 results
|